Weather in Khatyngnakh-Dzhura

Russia / Sakha (Yakutia) Republic     65°44′07″N   132°44′22″E
temp.,
°C
wind,
m/s
gust,
m/s
humid.,
%
clouds,
%
prec.,
mm/h
press.,
hPa
HPBL,
m
14 june, mon
mon1401:00+9s3374100 0.0 100663
04:00+9s3377100 0.0 100768
07:00+12ssw226042 0.0 1006340
10:00+15nw353410 0.0 10052085
13:00+18wnw453092 0.0 10042608
16:00+19nw663390 0.0 10032608
19:00+18nw453594 0.0 10041920
22:00+14w1158100 0.0 100410
15 june, tue
tue1501:00+11sw225760 0.0 100411
04:00+11s225977 0.0 100411
07:00+14s3351100 0.0 1003248
10:00+17wsw3439100 0.0 10021719
13:00+19w352989 0.0 10002806
16:00+18nw453857 0.0 1000918
19:00+19nw783559 0.0 9992197
22:00+15nw594329 0.0 1000177
16 june, wed
wed1601:00+9wnw225410 0.0 100210
04:00+9n2255100 0.0 100413
07:00+12nne2249100 0.0 1005396
10:00+14n3346100 0.0 10041287
13:00+16n344286 0.0 10041626
16:00+18nnw453571 0.0 10041864
19:00+17n343837 0.0 10041404
22:00+15nnw3449100 0.0 100642
17 june, thu
thu1701:00+10n336492 0.0 100922
04:00+9nnw117057 0.0 101010
07:00+13w115231 0.0 1010309
10:00+17wnw24415 0.0 10091406
13:00+20wnw45344 0.0 10082124
16:00+22nw462971 0.0 10072712
19:00+22nw35265 0.0 10072761
22:00+19nne334212 0.0 100730
18 june, fri
fri1801:00+15n115680 0.2 100911
04:00+13nnw116115 0.2 100911
07:00+18wnw13445 0.0 1009390
10:00+21nnw68345 0.0 10082109
13:00+22n8932100 0.0 10082497
16:00+20n9104592 0.0 10091979
19:00+19nne810390 0.0 10091512
22:00+14nne45430 0.0 101174